Location: Piedmont
(45.8748°N, 74.1254°W)
Time: 14:44:19
(UTC+00:00)

N. Korean satellite - Pass Details

Date: 07 December 2021
Orbit: 446 x 491 km, 97.3° (Epoch: 18 January)

Event Time Altitude Azimuth Distance (km) Brightness Sun altitude
Rises 11:08:55 0° 358° (N) 2,464 9.9 -12.6°
Reaches altitude 10° 11:11:19 10° 341° (NNW) 1,584 8.8 -12.2°
Maximum altitude 11:13:51 20° 292° (WNW) 1,098 7.7 -11.8°
Drops below altitude 10° 11:16:22 10° 244° (WSW) 1,574 8.8 -11.4°
Sets 11:18:45 0° 227° (SW) 2,442 9.9 -11.0°
